Location: Gniezno
(52.5278°N, 17.6011°E)
Time: 05:23:33
(UTC+02:00)

ISS - Visible Passes

Search period start: 28 May 2018 00:00
Search period end: 07 June 2018 00:00
Orbit: 402 x 407 km, 51.6° (Epoch: 28 May)

Date Brightness Start Highest point End Pass type
(mag) Time Alt. Az. Time Alt. Az. Time Alt. Az.
28 May -1.7 01:07:25 10° W 01:08:21 15° WSW 01:08:21 15° WSW visible
28 May -3.9 22:38:27 10° W 22:41:43 72° S 22:44:59 10° ESE visible
29 May -2.9 00:15:01 10° W 00:17:42 30° SW 00:17:42 30° SW visible
29 May -3.9 21:46:14 10° W 21:49:31 78° S 21:52:47 10° E visible
29 May -3.4 23:22:42 10° W 23:25:51 43° SSW 23:27:06 28° SSE visible
30 May -3.7 22:30:28 10° W 22:33:41 56° SSW 22:36:31 13° ESE visible
31 May -2.0 00:07:19 10° W 00:09:08 18° SW 00:09:08 18° SW visible
31 May -2.7 23:14:49 10° W 23:17:39 27° SSW 23:18:35 23° S visible
01 Jun -3.1 22:22:26 10° W 22:25:32 38° SSW 22:28:02 14° SE visible
02 Jun -1.3 00:00:35 10° SW 00:00:40 10° SW 00:00:40 10° SW visible
02 Jun -1.9 23:07:10 10° WSW 23:09:19 16° SW 23:10:09 15° SSW visible
03 Jun -2.3 22:14:31 10° W 22:17:14 24° SSW 22:19:40 12° SSE visible
05 Jun -1.5 22:06:57 10° WSW 22:08:46 14° SW 22:10:36 10° S visible
